EJU21E LGKR-LICR

Flight info

Callsign EJU21E
Flight time 0h 49m
Altitude 18000
Route LATAN L869 CDC/N0322F170 L869 PEROS
Aircraft A20N/M-SDE2E3FGHIRWXY/LB1

Departure

Time 2026-04-23 17:00
Airport Corfu Ioannis Kapodistrias International Airport (LGKR)

Arrival

Time 2026-04-23 17:50
Airport Reggio Calabria Airport (LICR)
Time Latitude Longitude Altitude Speed Heading
2026-04-23 16:05 39.60766 19.91339 9 ft 0 kts 78°
2026-04-23 16:48 39.60766 19.91338 9 ft 2 kts 78°
2026-04-23 16:49 39.60763 19.91318 9 ft 4 kts 78°
2026-04-23 16:49 39.60760 19.91299 9 ft 0 kts 78°
2026-04-23 16:49 39.60759 19.91294 9 ft 1 kts 78°
2026-04-23 16:50 39.60757 19.91283 9 ft 2 kts 78°
2026-04-23 16:50 39.60755 19.91269 11 ft 2 kts 78°
2026-04-23 16:50 39.60752 19.91255 10 ft 2 kts 78°
2026-04-23 16:50 39.60750 19.91240 8 ft 2 kts 78°
2026-04-23 16:51 39.60748 19.91226 8 ft 2 kts 81°
2026-04-23 16:51 39.60747 19.91212 8 ft 2 kts 111°
2026-04-23 16:51 39.60752 19.91199 10 ft 2 kts 143°
2026-04-23 16:51 39.60755 19.91196 12 ft 0 kts 154°
2026-04-23 16:55 39.60747 19.91200 9 ft 3 kts 159°
2026-04-23 16:55 39.60712 19.91212 8 ft 7 kts 167°
2026-04-23 16:55 39.60649 19.91222 8 ft 11 kts 184°
2026-04-23 16:55 39.60568 19.91186 8 ft 14 kts 205°
2026-04-23 16:56 39.60464 19.91152 8 ft 17 kts 180°
2026-04-23 16:56 39.60340 19.91177 9 ft 19 kts 168°
2026-04-23 16:56 39.60202 19.91212 10 ft 21 kts 169°
2026-04-23 16:56 39.60046 19.91251 11 ft 25 kts 170°
2026-04-23 16:57 39.59870 19.91295 12 ft 27 kts 168°
2026-04-23 16:57 39.59676 19.91346 7 ft 30 kts 169°
2026-04-23 16:57 39.59461 19.91402 6 ft 31 kts 168°
2026-04-23 16:57 39.59249 19.91448 5 ft 30 kts 176°
2026-04-23 16:58 39.59153 19.91478 5 ft 0 kts 92°
2026-04-23 16:58 39.59157 19.91481 5 ft 1 kts 50°
2026-04-23 16:58 39.59181 19.91475 5 ft 0 kts 345°
2026-04-23 17:00 39.59280 19.91448 6 ft 49 kts 348°
2026-04-23 17:00 39.59912 19.91280 12 ft 131 kts 347°
2026-04-23 17:00 39.60982 19.91025 337 ft 173 kts 346°
2026-04-23 17:00 39.62220 19.90670 1133 ft 184 kts 345°
2026-04-23 17:01 39.63469 19.90331 2292 ft 186 kts 348°
2026-04-23 17:01 39.64796 19.89927 3010 ft 203 kts 334°
2026-04-23 17:01 39.65792 19.88578 3810 ft 221 kts 292°
2026-04-23 17:01 39.65904 19.86584 4689 ft 233 kts 263°
2026-04-23 17:02 39.65679 19.85172 5299 ft 238 kts 256°
2026-04-23 17:02 39.65070 19.82430 6629 ft 243 kts 257°
2026-04-23 17:02 39.64581 19.80238 7219 ft 265 kts 246°
2026-04-23 17:02 39.63649 19.78037 7688 ft 292 kts 238°
2026-04-23 17:03 39.62525 19.75776 8475 ft 303 kts 237°
2026-04-23 17:03 39.61410 19.73486 9734 ft 296 kts 238°
2026-04-23 17:03 39.60335 19.71176 10603 ft 307 kts 240°
2026-04-23 17:03 39.59240 19.68717 11181 ft 324 kts 242°
2026-04-23 17:04 39.58091 19.66074 11563 ft 347 kts 242°
2026-04-23 17:04 39.56898 19.63304 12284 ft 355 kts 242°
2026-04-23 17:04 39.55699 19.60524 13362 ft 352 kts 243°
2026-04-23 17:04 39.54511 19.57771 14252 ft 355 kts 243°
2026-04-23 17:05 39.53292 19.54953 14996 ft 361 kts 244°
2026-04-23 17:05 39.52063 19.52104 15818 ft 364 kts 244°
2026-04-23 17:05 39.50822 19.49226 16606 ft 367 kts 243°
2026-04-23 17:05 39.49565 19.46325 17327 ft 373 kts 243°
2026-04-23 17:06 39.48278 19.43356 17576 ft 379 kts 243°
2026-04-23 17:06 39.46990 19.40394 17691 ft 374 kts 244°
2026-04-23 17:06 39.45724 19.37491 17827 ft 369 kts 243°
2026-04-23 17:06 39.44454 19.34576 17930 ft 372 kts 244°
2026-04-23 17:07 39.43184 19.31657 17970 ft 372 kts 244°
2026-04-23 17:07 39.41916 19.28742 17972 ft 372 kts 244°
2026-04-23 17:07 39.40642 19.25820 17970 ft 373 kts 244°
2026-04-23 17:07 39.39381 19.22935 17979 ft 372 kts 243°
2026-04-23 17:08 39.38107 19.20025 17981 ft 372 kts 244°
2026-04-23 17:08 39.36830 19.17106 17981 ft 373 kts 244°
2026-04-23 17:08 39.35552 19.14180 17980 ft 373 kts 243°
2026-04-23 17:08 39.34272 19.11260 17985 ft 373 kts 244°
2026-04-23 17:09 39.32984 19.08327 17989 ft 376 kts 243°
2026-04-23 17:09 39.32125 19.06375 17993 ft 376 kts 243°
2026-04-23 17:09 39.30844 19.03465 17984 ft 368 kts 244°
2026-04-23 17:09 39.29443 18.99507 17985 ft 366 kts 255°
2026-04-23 17:10 39.28960 18.97420 17997 ft 363 kts 259°
2026-04-23 17:10 39.28470 18.94243 17996 ft 359 kts 263°
2026-04-23 17:10 39.28020 18.91059 17998 ft 363 kts 263°
2026-04-23 17:10 39.27556 18.87849 17996 ft 363 kts 262°
2026-04-23 17:11 39.27086 18.84636 18006 ft 365 kts 263°
2026-04-23 17:11 39.26612 18.81436 18002 ft 362 kts 262°
2026-04-23 17:11 39.26137 18.78255 18001 ft 359 kts 263°
2026-04-23 17:11 39.25669 18.75057 18003 ft 366 kts 263°
2026-04-23 17:12 39.25197 18.71836 17999 ft 367 kts 262°
2026-04-23 17:12 39.24716 18.68602 18005 ft 365 kts 262°
2026-04-23 17:12 39.24242 18.65421 18005 ft 365 kts 263°
2026-04-23 17:12 39.23761 18.62209 18004 ft 364 kts 263°
2026-04-23 17:13 39.23282 18.58994 18007 ft 365 kts 262°
2026-04-23 17:13 39.22803 18.55772 18010 ft 367 kts 262°
2026-04-23 17:13 39.22317 18.52539 18009 ft 365 kts 262°
2026-04-23 17:13 39.21834 18.49334 18010 ft 363 kts 263°
2026-04-23 17:14 39.21352 18.46135 18010 ft 364 kts 262°
2026-04-23 17:14 39.20869 18.42917 18013 ft 366 kts 262°
2026-04-23 17:14 39.20382 18.39669 18012 ft 370 kts 261°
2026-04-23 17:14 39.19894 18.36456 18012 ft 368 kts 262°
2026-04-23 17:15 39.19401 18.33220 18015 ft 367 kts 263°
2026-04-23 17:15 39.18911 18.29993 18013 ft 369 kts 261°
2026-04-23 17:15 39.18418 18.26742 18012 ft 369 kts 261°
2026-04-23 17:15 39.17924 18.23492 18012 ft 369 kts 261°
2026-04-23 17:16 39.17428 18.20256 18013 ft 368 kts 262°
2026-04-23 17:16 39.16929 18.17009 18013 ft 369 kts 262°
2026-04-23 17:16 39.16431 18.13753 18018 ft 370 kts 262°
2026-04-23 17:16 39.15935 18.10511 18018 ft 370 kts 261°
2026-04-23 17:17 39.15440 18.07297 18015 ft 370 kts 262°
2026-04-23 17:17 39.14936 18.04049 18019 ft 369 kts 262°
2026-04-23 17:17 39.14433 18.00810 18021 ft 368 kts 262°
2026-04-23 17:17 39.13933 17.97570 18021 ft 369 kts 262°
2026-04-23 17:18 39.12925 17.91069 18022 ft 370 kts 262°
2026-04-23 17:18 39.12417 17.87824 18024 ft 369 kts 262°
2026-04-23 17:18 39.11911 17.84585 18024 ft 369 kts 261°
2026-04-23 17:19 39.11404 17.81329 18020 ft 370 kts 261°
2026-04-23 17:19 39.10897 17.78077 18023 ft 371 kts 261°
2026-04-23 17:19 39.10386 17.74865 18024 ft 370 kts 261°
2026-04-23 17:19 39.09868 17.71625 18028 ft 367 kts 262°
2026-04-23 17:20 39.09356 17.68418 18027 ft 367 kts 262°
2026-04-23 17:20 39.08325 17.61952 18026 ft 368 kts 262°
2026-04-23 17:21 39.07291 17.55516 18031 ft 367 kts 262°
2026-04-23 17:21 39.06774 17.52293 18032 ft 368 kts 262°
2026-04-23 17:21 39.05742 17.45879 18037 ft 367 kts 262°
2026-04-23 17:22 39.05221 17.42660 18039 ft 368 kts 262°
2026-04-23 17:22 39.04178 17.36222 18041 ft 368 kts 261°
2026-04-23 17:23 39.03131 17.29781 18045 ft 367 kts 261°
2026-04-23 17:23 39.02606 17.26564 18046 ft 368 kts 262°
2026-04-23 17:23 39.01553 17.20120 18048 ft 368 kts 261°
2026-04-23 17:24 39.01024 17.16890 18048 ft 369 kts 261°
2026-04-23 17:24 39.00494 17.13668 18048 ft 369 kts 261°
2026-04-23 17:24 38.99249 17.07266 18048 ft 372 kts 253°
2026-04-23 17:25 38.97243 17.01202 18048 ft 369 kts 250°
2026-04-23 17:25 38.96231 16.98171 18048 ft 369 kts 250°
2026-04-23 17:26 38.94208 16.92096 18048 ft 370 kts 250°
2026-04-23 17:26 38.92176 16.86016 18045 ft 370 kts 250°
2026-04-23 17:27 38.90144 16.79950 18045 ft 370 kts 250°
2026-04-23 17:27 38.89124 16.76911 18045 ft 370 kts 250°
2026-04-23 17:27 38.88102 16.73870 18045 ft 370 kts 250°
2026-04-23 17:27 38.87082 16.70839 18045 ft 370 kts 250°
2026-04-23 17:28 38.86072 16.67837 18045 ft 374 kts 250°
2026-04-23 17:28 38.85039 16.64767 18041 ft 374 kts 250°
2026-04-23 17:28 38.84005 16.61705 18042 ft 374 kts 250°
2026-04-23 17:28 38.82971 16.58652 18032 ft 371 kts 250°
2026-04-23 17:29 38.81950 16.55646 18038 ft 363 kts 250°
2026-04-23 17:29 38.80936 16.52655 18034 ft 367 kts 250°
2026-04-23 17:29 38.78951 16.46808 18033 ft 366 kts 250°
2026-04-23 17:30 38.77917 16.43766 18029 ft 367 kts 250°
2026-04-23 17:30 38.75871 16.37735 17633 ft 365 kts 252°
2026-04-23 17:30 38.75089 16.34667 17368 ft 360 kts 258°
2026-04-23 17:31 38.74437 16.31561 17131 ft 362 kts 258°
2026-04-23 17:31 38.73786 16.28488 17044 ft 362 kts 258°
2026-04-23 17:31 38.73124 16.25385 17029 ft 362 kts 258°
2026-04-23 17:31 38.72457 16.22275 17031 ft 362 kts 258°
2026-04-23 17:32 38.71791 16.19175 17032 ft 361 kts 258°
2026-04-23 17:32 38.71123 16.16062 17035 ft 363 kts 258°
2026-04-23 17:32 38.70452 16.12943 17040 ft 362 kts 258°
2026-04-23 17:32 38.69783 16.09838 17037 ft 362 kts 258°
2026-04-23 17:33 38.69112 16.06730 17039 ft 362 kts 258°
2026-04-23 17:33 38.68441 16.03629 17038 ft 357 kts 258°
2026-04-23 17:33 38.67784 16.00606 17046 ft 350 kts 258°
2026-04-23 17:33 38.67125 15.97567 16900 ft 359 kts 258°
2026-04-23 17:34 38.66460 15.94492 16635 ft 358 kts 258°
2026-04-23 17:34 38.65796 15.91434 16380 ft 354 kts 258°
2026-04-23 17:34 38.64342 15.85419 15849 ft 357 kts 246°
2026-04-23 17:35 38.62848 15.82860 15606 ft 365 kts 227°
2026-04-23 17:35 38.58224 15.80076 14978 ft 377 kts 197°
2026-04-23 17:35 38.55666 15.79313 14427 ft 378 kts 195°
2026-04-23 17:36 38.53130 15.78596 13882 ft 376 kts 195°
2026-04-23 17:36 38.50591 15.77859 13303 ft 372 kts 195°
2026-04-23 17:36 38.48081 15.77109 12768 ft 367 kts 197°
2026-04-23 17:36 38.45609 15.76349 12235 ft 363 kts 197°
2026-04-23 17:37 38.43165 15.75587 11713 ft 359 kts 196°
2026-04-23 17:37 38.40784 15.74840 11193 ft 356 kts 196°
2026-04-23 17:37 38.36034 15.73351 10389 ft 342 kts 195°
2026-04-23 17:38 38.33771 15.72645 10251 ft 328 kts 195°
2026-04-23 17:38 38.31592 15.71966 10116 ft 315 kts 195°
2026-04-23 17:38 38.29499 15.71314 9908 ft 305 kts 195°
2026-04-23 17:38 38.27443 15.70674 9474 ft 303 kts 196°
2026-04-23 17:39 38.25400 15.70037 9065 ft 300 kts 196°
2026-04-23 17:39 38.23382 15.69407 8663 ft 298 kts 195°
2026-04-23 17:39 38.21371 15.68780 8268 ft 295 kts 195°
2026-04-23 17:39 38.19383 15.68163 7892 ft 293 kts 195°
2026-04-23 17:40 38.17411 15.67551 7531 ft 290 kts 195°
2026-04-23 17:40 38.15488 15.66952 7178 ft 288 kts 195°
2026-04-23 17:40 38.13544 15.66348 6810 ft 287 kts 195°
2026-04-23 17:40 38.11629 15.65753 6689 ft 282 kts 194°
2026-04-23 17:41 38.09746 15.65169 6588 ft 273 kts 194°
2026-04-23 17:41 38.06474 15.63353 6425 ft 244 kts 222°
2026-04-23 17:41 38.05187 15.62024 6336 ft 233 kts 222°
2026-04-23 17:42 38.02686 15.59479 5834 ft 228 kts 221°
2026-04-23 17:42 38.01468 15.58250 5737 ft 218 kts 222°
2026-04-23 17:42 38.00292 15.57062 5528 ft 214 kts 222°
2026-04-23 17:43 37.99145 15.55902 5265 ft 214 kts 222°
2026-04-23 17:43 37.97925 15.54819 4989 ft 216 kts 206°
2026-04-23 17:43 37.96459 15.54400 4693 ft 218 kts 184°
2026-04-23 17:43 37.94943 15.54288 4408 ft 218 kts 185°
2026-04-23 17:44 37.93430 15.54164 4166 ft 217 kts 185°
2026-04-23 17:44 37.91943 15.54039 4006 ft 211 kts 182°
2026-04-23 17:44 37.89639 15.55841 3855 ft 206 kts 107°
2026-04-23 17:45 37.89485 15.57547 3725 ft 193 kts 80°
2026-04-23 17:45 37.90390 15.60553 2966 ft 183 kts 33°
2026-04-23 17:45 37.91559 15.61130 2859 ft 181 kts 13°
2026-04-23 17:46 37.93983 15.62077 2692 ft 181 kts 17°
2026-04-23 17:46 37.95179 15.62585 2691 ft 182 kts 17°
2026-04-23 17:46 37.96375 15.63093 2678 ft 180 kts 16°
2026-04-23 17:47 37.97526 15.63571 2620 ft 164 kts 16°
2026-04-23 17:47 37.98544 15.63993 2289 ft 152 kts 16°
2026-04-23 17:47 38.00562 15.64786 1738 ft 137 kts 16°
2026-04-23 17:48 38.01442 15.65122 1589 ft 132 kts 16°
2026-04-23 17:48 38.02322 15.65447 1373 ft 131 kts 15°
2026-04-23 17:48 38.03189 15.65726 1158 ft 126 kts 12°
2026-04-23 17:48 38.04043 15.65952 920 ft 125 kts 10°
2026-04-23 17:49 38.04917 15.66127 693 ft 128 kts
2026-04-23 17:49 38.05814 15.66001 395 ft 133 kts 339°
2026-04-23 17:49 38.06642 15.65478 108 ft 134 kts 329°
2026-04-23 17:49 38.07381 15.64987 57 ft 88 kts 333°
2026-04-23 17:50 38.07692 15.64785 61 ft 33 kts 335°
2026-04-23 17:50 38.08097 15.64543 63 ft 30 kts 339°
2026-04-23 17:50 38.08130 15.64517 60 ft 0 kts 296°
2026-04-23 17:51 38.08128 15.64513 60 ft 1 kts 253°
2026-04-23 17:51 38.08116 15.64511 60 ft 4 kts 183°
2026-04-23 17:51 38.07956 15.64610 61 ft 20 kts 153°
2026-04-23 17:52 38.07817 15.64698 59 ft 24 kts 153°
2026-04-23 17:52 38.07489 15.64914 61 ft 29 kts 152°
2026-04-23 17:52 38.07393 15.64979 56 ft 1 kts 147°
2026-04-23 17:53 38.07407 15.65047 55 ft 10 kts 63°
2026-04-23 17:53 38.07402 15.65108 56 ft 8 kts 142°
2026-04-23 17:53 38.07368 15.65151 56 ft 4 kts 85°
2026-04-23 17:54 38.07369 15.65154 61 ft 0 kts 68°